Regional Weather Roundup
Issued by NWS Northern Indiana

Home | Current Version | Previous Version | Text Only | Print | Product List | Glossary On
Versions: 1 2 3 4 5 6 7 8 9 10 11 12 13 14 15 16 17 18 19 20 21 22 23 24 25 26 27 28 29 30 31 32 33 34 35 36 37 38 39 40 41 42 43 44 45 46 47 48 49 50
000
ASUS43 KIWX 031400
RWRIWX

KIWX WEATHER ROUNDUP
NATIONAL WEATHER SERVICE NORTHERN INDIANA
1000 AM EDT MON AUG 03 2015

NOTE: "FAIR" INDICATES FEW OR NO CLOUDS BELOW 12,000 FEET WITH NO
SIGNIFICANT WEATHER AND/OR OBSTRUCTIONS TO VISIBILITY.

* THESE STATIONS ARE NOT UNDER NWS QUALITY CONTROL. THEY ALSO MAY NOT
  REPORT WEATHER SUCH AS PRECIPITATION OR FOG.

INZ001>027-031500-
NORTHERN INDIANA

CITY           SKY/WX    TMP DP  RH WIND       PRES   REMARKS
GARY*          MOSUNNY   75  66  73 NW9       29.83S
SOUTH BEND     MOSUNNY   72  65  78 W5        29.83S
ELKHART*       PTSUNNY   70  66  88 W7        29.83S
GOSHEN         CLOUDY    68  64  87 VRB3      29.83R
ANGOLA*        CLOUDY    70  61  73 W7        29.83R
FORT WAYNE     PTSUNNY   72  66  81 W12       29.84R

$$
INZ028>050-031500-
CENTRAL INDIANA

CITY           SKY/WX    TMP DP  RH WIND       PRES   REMARKS
LAFAYETTE      SUNNY     76  71  85 W6        29.82R
KOKOMO*        PTSUNNY   73  68  83 S8        29.83S
MUNCIE*        CLOUDY    67  64  90 S10       29.85S
INDIANAPOLIS   PTSUNNY   77  70  79 SW8       29.84S

$$
MIZ043>046-050>051-056>058-064>065-071>073-077>080-031500-
SOUTHWEST LOWER MICHIGAN

CITY           SKY/WX    TMP DP  RH WIND       PRES   REMARKS
BATTLE CREEK     N/A     67  62  84 MISG      29.82S
BENTON HARBOR  MOSUNNY   73  66  78 NW7       29.82R
COLDWATER*     PTSUNNY   68  62  83 W6        29.82S
HILLSDALE*     CLOUDY    67  65  94 W7        29.82S
HOLLAND        MOSUNNY   73  64  73 W8        29.81S
GRAND RAPIDS   PTSUNNY   69  64  84 W6        29.80S
KALAMAZOO      PTSUNNY   70  64  81 SW7       29.82R
STURGIS*       CLOUDY    66  64  94 W5        29.82S
THREE RIVERS*  PTSUNNY   69  66  92 W5        29.83S

$$
OHZ001>008-015>018-024>025-031500-
NORTHWEST OHIO

CITY           SKY/WX    TMP DP  RH WIND       PRES   REMARKS
DEFIANCE       CLOUDY    69  63  81 SW9       29.82S
FINDLAY        SUNNY     72  63  73 SW13      29.81R
TOLEDO EXPRESS PTSUNNY   68  63  84 W13       29.80S
TOLEDO METCALF PTSUNNY   70  62  76 W17       29.80F
LIMA           CLOUDY    70  63  78 SW12      29.83R

$$
AND FOR LAKE MICHIGAN COASTAL AND OPEN LAKE BUOY OBSERVATIONS

STATION/POSITION TEMP    WIND        PRES    VSBY  WAVE
                 AIR SEA DIR/SP/G                  HT/PER
                 (F)     (DEG/KT/KT) (MB)    (MI)  (FT/S)
CALUMET HARBOR    73     310/  4/  8   N/A
MICHIGAN CITY     72     260/  9/ 10   N/A
BURNS HARBOR      72     300/  5/  5 1010.5R
SAINT JOSEPH      72     240/  6/  8 1010.5R
4 MI NW BRIDGMAN  71 73  300/  8/ 10   N/A           2/ 4
MICHIGAN CITY     72 73  300/  8/ 10   N/A           2/ 5

$$
&&



USA.gov is the U.S. government's official web portal to all federal, state and local government web resources and services.